#timestamp,LO_Frequency,Hit,StdDev 
1541062815.6,286047002.3,N
1541062835.5,286047000.5,N
1541062855.3,286047002.2,N
1541062875.1,286047001.5,N
1541062895.9,286047003.0,N
1541062915.7,286047005.1,N
1541062935.6,286047007.2,Y
1541062955.4,286047005.4,P
1541062975.2,286047003.4,N
1541062995.1,286047003.6,P
1541062996.0,286047003.6,Y
1541063015.8,286046999.7,P
1541063035.7,286047004.4,N
1541063055.5,286047003.7,N
1541063075.3,286047005.4,N
1541063095.2,286047004.6,N
1541063115.9,286047005.4,N
1541063135.7,286047007.5,Y
1541063155.6,286047000.7,P
1541063175.4,286046998.6,N
1541063195.3,286046999.2,N
1541063215.1,286046996.8,N
1541063216.0,286046996.8,N
1541063235.8,286046996.6,N
1541063255.7,286046998.8,N
1541063275.5,286046999.7,N
1541063295.3,286047002.2,N
1541063315.2,286047000.4,N
1541063335.0,286047002.6,N
1541063335.9,286047002.6,N
1541063355.8,286047002.1,N
1541063375.6,286047003.8,N
1541063395.4,286047005.0,N
1541063415.3,286047004.9,N
1541063435.1,286047005.5,N
1541063455.8,286047006.0,N
1541063475.7,286047003.0,N
1541063495.5,286047003.4,N
1541063515.4,286047004.4,N
1541063535.2,286047003.4,N
1541063555.0,286047003.8,N
1541063555.9,286047003.8,N
1541063575.8,286047001.7,N
1541063595.6,286047004.8,N
1541063615.5,286047009.1,Y
1541063635.3,286047002.3,P
1541063655.1,286047003.8,P
1541063675.9,286047002.0,N
1541063695.7,286046998.3,N
1541063715.6,286046998.6,N
1541063735.4,286046998.7,N
1541063755.2,286046997.7,N
1541063775.1,286046996.7,N
1541063776.0,286046996.7,N
1541063795.8,286046996.6,N
1541063815.6,286046997.4,N
1541063835.5,286046995.3,N
1541063855.3,286046994.9,N
1541063875.2,286046995.4,N
1541063895.9,286046996.0,N
1541063915.7,286046992.2,N
1541063935.6,286046994.4,N
1541063955.4,286046994.6,N
1541063975.2,286046994.7,N
1541063995.1,286046993.3,N
1541063996.0,286046993.3,N
1541064015.8,286046995.7,N
1541064035.7,286046996.2,N
1541064055.5,286046994.8,N
1541064075.3,286046994.7,N
1541064095.2,286046992.0,N
1541064115.0,286046992.0,N
1541064115.9,286046992.0,N
1541064135.8,286046992.8,N
1541064155.6,286046991.8,N
1541064175.4,286046993.8,N
1541064195.3,286046995.8,N
1541064215.1,286046995.6,N
1541064235.9,286046995.5,N
1541064255.7,286046995.4,N
1541064275.5,286046997.0,N
1541064295.4,286046999.2,N
1541064315.2,286046999.0,N
1541064335.0,286047001.1,N
1541064335.9,286047001.1,N
1541064355.8,286047000.1,N
1541064375.6,286047000.0,N
1541064395.5,286046998.2,N
1541064415.3,286046997.2,N
1541064435.1,286046994.4,N
1541064455.9,286046990.7,Y
1541064475.7,286046995.0,P
1541064495.5,286046997.6,P
1541064515.4,286046998.4,N
1541064535.2,286047002.5,N
1541064555.1,286047002.7,N
1541064556.0,286047002.7,N
1541064575.8,286047003.4,N
1541064595.6,286047007.2,N
1541064615.5,286047008.6,N
1541064635.3,286047010.8,N
1541064655.1,286047013.9,N
1541064675.9,286047017.0,N
1541064695.7,286047014.7,N
1541064715.6,286047011.0,N
1541064735.4,286047009.6,N
1541064755.2,286047011.1,N
1541064775.1,286047010.2,N
1541064776.0,286047010.2,N
1541064795.8,286047006.3,N
1541064815.6,286047003.2,N
1541064835.5,286047003.4,N
1541064855.3,286047005.6,N
1541064875.1,286047005.0,N
1541064895.9,286047006.7,N
1541064915.7,286047006.4,N
1541064935.6,286047006.4,N
1541064955.4,286047009.0,N
1541064975.2,286047008.3,N
1541064995.1,286047008.2,N
1541064996.0,286047008.2,N
1541065015.8,286047010.0,N
1541065035.6,286047012.2,N
1541065055.5,286047012.0,N
1541065075.3,286047007.8,N
1541065095.2,286047011.9,Y
1541065115.9,286047004.3,P
1541065135.7,286047004.3,N
1541065155.6,286047001.7,N
1541065175.4,286047002.3,N
1541065195.2,286046998.6,N
1541065215.1,286047000.2,N
1541065216.0,286047000.2,N
1541065235.8,286047000.9,N
1541065255.7,286047000.6,N
1541065275.5,286046998.4,N
1541065295.3,286046999.1,N
1541065315.2,286046995.3,N
1541065335.0,286046993.6,N
1541065335.9,286046993.6,N
1541065355.7,286046992.0,N
1541065375.6,286046988.8,N
1541065395.4,286046987.3,N
1541065415.3,286046987.8,N
1541065435.1,286046986.8,N
1541065436.0,286046986.8,N
1541065455.8,286046984.5,N
1541065475.7,286046986.1,N
1541065495.5,286046985.3,N
1541065515.3,286046987.2,N
1541065535.2,286046985.8,N
1541065555.0,286046985.5,N
1541065555.9,286046985.5,N
1541065575.8,286046987.6,N
1541065595.6,286046984.1,N
1541065615.4,286046983.8,N
1541065635.3,286046988.2,N
1541065655.1,286046988.2,N
1541065675.8,286046988.1,N
1541065695.7,286046985.6,N
1541065715.5,286046986.8,N
1541065735.4,286046985.8,N
1541065755.2,286046989.6,N
1541065775.0,286046991.4,N
1541065775.9,286046991.4,N
1541065795.8,286046993.2,N
1541065815.6,286046992.2,N
1541065835.4,286046992.2,N
1541065855.3,286046991.5,N
1541065875.1,286046987.8,Y
1541065895.9,286046999.1,P
1541065915.7,286046998.0,N
1541065935.5,286046997.7,N
1541065955.4,286047000.5,N
1541065975.2,286046997.6,N
1541065995.0,286046999.6,N
1541065995.9,286046999.6,N
1541066015.8,286047000.7,N
1541066035.6,286047002.3,N
1541066055.5,286047001.5,N
1541066075.3,286047004.1,N
1541066095.1,286047005.1,N
1541066115.9,286047007.6,N
1541066135.7,286047008.1,N
1541066155.5,286047010.8,N
1541066175.4,286047010.8,N
1541066195.2,286047008.7,N
1541066215.1,286047007.3,N
1541066216.0,286047007.3,N
1541066235.8,286047004.9,N
1541066255.6,286047007.0,N
1541066275.5,286047007.0,N
1541066295.3,286047005.4,N
1541066315.1,286047007.6,N
1541066335.9,286047005.1,N
1541066355.7,286047007.6,N
1541066375.5,286047007.4,N
1541066395.4,286047006.7,N
